Volver al catálogo

FENGYUN 1C DEB

ActivoPO
NORAD 30833·DEBRIS·🇨🇳 China

Lanzado May 10, 1999 desde Taiyuan Satellite Launch Center

Loading…

Próximos Pases (próximas 24 horas)

TLE

EnvejeciendoSource: Space-Track

Época: Sep 4, 2026, 17:44 UTC

1 30833U 99025AVT 26247.73899226  .00000292  00000-0  14080-3 0  9998
2 30833  99.8691  72.3236 0032809 152.2923 208.0010 14.27252177682050

Sigue FENGYUN 1C DEB en tiempo real con AllMySat

Download on the App Store